Flag for U.S.A. Weather past 2 weeks in Colorado Springs, Colorado, U.S.A.

60 °F

Partly sunny.

Feels Like: 60 °F
Forecast: 46 / 65 °F
Wind: 17 mph from Southeast

Location: City Of Colorado Springs Municipal Airport

Current Time: Oct 4, 2015 at 5:54:50 PM

Latest Report: Oct 4, 2015 at 4:54 PM

Visibility: 10 mi

Pressure: 29.97 "Hg (24.13 "Hg at 1831m altitude)

Humidity: 58%

Dew point: 45 °F

Location of Colorado SpringsLocation

Historic Weather in Colorado Springs — Graph


Colorado Springs temperature yesterday

Maximum temperature yesterday: 70 °F (at 3:54 PM)
Minimum temperature yesterday: 48 °F (at 1:54 AM)
Average temperature yesterday: 54 °F

Past Weeks' High & Low Weather Summary

High87 °F (Sep 27, 2:54 PM)100% (Oct 2, 12:54 AM)30.23 "Hg (Oct 2, 12:54 AM)
Low46 °F (Oct 4, 7:54 AM)8% (Sep 21, 2:54 PM)29.65 "Hg (Oct 3, 3:54 PM)
Average63 °F54%29.97 "Hg
* Reported Sep 19 3:54 PM — Oct 4 3:54 PM, Colorado Springs, Weather by CustomWeather, © 2015

Note: Actual official high and low records may vary slightly from our data, if they occured in-between our weather recording intervals... More about our weather records


Colorado Springs weather history for previous 24 hours

Time TempWeatherWind HumidityBarometerVisibility
3:54 PM
Sun, Oct 4
60 °FPartly sunny.13 mph60%29.96 "Hg10 mi
2:54 PM62 °FPartly sunny.8 mph58%29.94 "Hg8 mi
1:54 PM59 °FPartly sunny.14 mph62%29.96 "Hg8 mi
12:54 PM57 °FFog.9 mph67%30.00 "Hg5 mi
11:54 AM54 °FFog.3 mph74%30.03 "Hg2 mi
10:54 AM49 °FFog.3 mph90%30.06 "Hg2 mi
9:54 AM48 °FFog.3 mph96%30.07 "Hg0 mi
8:54 AM47 °FFog.6 mph97%30.06 "Hg0 mi
7:54 AM46 °FFog.13 mph96%30.03 "Hg0 mi
6:54 AM48 °FFog.3 mph86%29.97 "Hg6 mi
5:54 AM47 °FFog.7 mph93%29.95 "Hg5 mi
4:54 AM47 °FFog.3 mph93%29.90 "Hg4 mi
3:54 AM48 °FFog.7 mph89%29.88 "Hg5 mi
2:54 AM49 °FMostly cloudy.9 mph90%29.87 "Hg7 mi
1:54 AM50 °FOvercast.8 mph86%29.88 "Hg8 mi
12:54 AM49 °FMostly cloudy.9 mph90%29.89 "Hg8 mi
12:02 AM49 °FPassing clouds.8 mph86%30.02 "Hg10 mi
11:54 PM
Sat, Oct 3
48 °FPassing clouds.7 mph89%29.90 "Hg10 mi
10:54 PM49 °FPassing clouds.7 mph86%29.89 "Hg10 mi
8:54 PM53 °FPassing clouds.10 mph80%29.86 "Hg10 mi
7:54 PM54 °FPartly cloudy.6 mph77%29.80 "Hg10 mi
6:54 PM54 °FThunderstorms. Broken clouds.16 mph80%29.79 "Hg10 mi
5:54 PM56 °FThunderstorms. Broken clouds.20 mph77%29.74 "Hg10 mi
Weather by CustomWeather, © 2015

See weather overviewHow to use our weather pages